IRNSS-1I (43286 NORAD) Tracking and Keplerian Element Data

This shows tracking and keplerian element data for the satellite.

Feedback or suggestion? Click here.




ElementValue
Catalog43286
NameIRNSS-1I
Epoch Orbit829
Epoch Day188.87558821
Epoch Year2020
RAAN109.1097
Inclination29.1924
Eccentricity0.0018747
Argument of Perigee185.4518
Mean Anonmoly1.026
Mean Motion1.00277804
Decay Rate7E-07
L11 43286U 18035A 20188.87558821 .00000070 00000-0 00000+0 0 9999
L22 43286 29.1924 109.1097 0018747 185.4518 1.0260 1.00277804 8295

Live tracking and technical data element details for IRNSS-1I (NORAD 43286). IRNSS-1I can be tracked NOW for your location showing map with azimuth and elevation plus other details from your city location.

Track the satellite on the map from your city or location and see movement details for azimuth, elevation, latitude, longitude, range, height, and movement on the map or in text.







IsCatalogInMostPopularTable: catalog: 43286, numindb: 3036
Update: records affected: 1



GetName: 43286 IRNSS-1I

Hit Count: updated at: Wed, 08 Jul 2020 21:23:07 GMT